Weather History for Jefferson, NC

Change the Weather History Date:

Tuesday, November 20, 2012

  Actual Average Record
Temperature  
Mean Temperature 44 °F -  
Max Temperature 55 °F 53 °F 70 °F (1985)
Min Temperature 33 °F 31 °F 14 °F (1980)
Degree Days  
Heating Degree Days 21    
Moisture  
Dew Point 31 °F    
Average Humidity 60    
Maximum Humidity 100    
Minimum Humidity 30    
Precipitation  
Precipitation 0.00 in - - ()
Sea Level Pressure  
Sea Level Pressure 30.12 in    
Wind  
Wind Speed 2 mph (NNW)    
Max Wind Speed 9 mph    
Max Gust Speed -    
Visibility 8 miles    
Events Fog    
Averages and records for this station are not official NWS values.
T = Trace of Precipitation, MM = Missing Value Source: NWS Daily Summary

Daily Weather History Graph

Daily Weather History Graph

Search for Another Location

Airport:

Trip Planner

Search our weather history database for the weather conditions in past years. The results will help you decide how hot, cold, wet, or windy it might be!

Date:

Astronomy

Nov. 20, 2012 Rise Set
Actual Time 7:08 AM EST 5:13 PM EST
Civil Twilight 6:40 AM EST 5:41 PM EST
Nautical Twilight 6:09 AM EST 6:13 PM EST
Astronomical Twilight 5:38 AM EST 6:43 PM EST
Moon 12:48 PM EST (11/20) No Moon Set
Length of Visible Light 11h 00m
Length of Day
10h 05m
Waxing Crescent, 51% of the Moon is Illuminated
Nov 20
Waxing Crescent
Nov 28
Full
Dec 6
Last Quarter
Dec 13
New
Dec 20
First Quarter

Hourly Weather History & Observations

Time (EST) Temp. Windchill Dew Point Humidity Pressure Visibility Wind Dir Wind Speed Gust Speed Precip Events Conditions
12:15 AM 37.4 °F - 35.6 °F 93% 30.19 in 0.2 mi Calm Calm - N/A Fog Fog
12:35 AM 39.2 °F - 37.4 °F 93% 30.19 in 0.8 mi Calm Calm - N/A   Mostly Cloudy
12:55 AM 39.2 °F - 37.4 °F 93% 30.18 in 0.8 mi Calm Calm - N/A   Overcast
1:15 AM 37.4 °F - 35.6 °F 93% 30.17 in 0.2 mi Calm Calm - N/A Fog Fog
1:35 AM 39.2 °F - 37.4 °F 93% 30.17 in 2.5 mi Calm Calm - N/A   Scattered Clouds
1:55 AM 37.4 °F - 35.6 °F 93% 30.17 in 1.0 mi Calm Calm - N/A   Mostly Cloudy
2:15 AM 35.6 °F - 33.8 °F 93% 30.16 in 0.2 mi Calm Calm - N/A Fog Fog
2:35 AM 35.6 °F - 33.8 °F 93% 30.16 in 0.5 mi Calm Calm - N/A Fog Fog
3:15 AM 33.8 °F - 33.8 °F 100% 30.15 in 5.0 mi Calm Calm - N/A   Scattered Clouds
3:35 AM 33.8 °F - 32.0 °F 93% 30.14 in 0.5 mi Calm Calm - N/A Fog Fog
7:35 AM 37.4 °F 34.9 °F 35.6 °F 93% 30.15 in 10.0 mi SE 3.5 mph - N/A   Clear
7:55 AM 37.4 °F 34.9 °F 33.8 °F 87% 30.15 in 10.0 mi East 3.5 mph - N/A   Clear
8:15 AM 37.4 °F - 35.6 °F 93% 30.15 in 10.0 mi Calm Calm - N/A   Clear
8:35 AM 39.2 °F - 35.6 °F 87% 30.16 in 10.0 mi Calm Calm - N/A   Clear
8:55 AM 41.0 °F - 35.6 °F 81% 30.16 in 10.0 mi Calm Calm - N/A   Clear
9:15 AM 41.0 °F - 37.4 °F 87% 30.16 in 10.0 mi Calm Calm - N/A   Scattered Clouds
9:35 AM 42.8 °F - 37.4 °F 81% 30.16 in 10.0 mi Calm Calm - N/A   Mostly Cloudy
9:55 AM 44.6 °F - 35.6 °F 71% 30.16 in 10.0 mi Calm Calm - N/A   Overcast
10:15 AM 44.6 °F - 37.4 °F 76% 30.16 in 10.0 mi Calm Calm - N/A   Overcast
10:35 AM 44.6 °F 41.4 °F 35.6 °F 71% 30.16 in 10.0 mi NNW 5.8 mph - N/A   Mostly Cloudy
10:55 AM 46.4 °F - 37.4 °F 71% 30.15 in 10.0 mi Calm Calm - N/A   Scattered Clouds
11:15 AM 50.0 °F - 32.0 °F 50% 30.14 in 10.0 mi North 8.1 mph - N/A   Mostly Cloudy
11:35 AM 50.0 °F - 32.0 °F 50% 30.14 in 10.0 mi Calm Calm - N/A   Overcast
11:55 AM 51.8 °F - 32.0 °F 47% 30.13 in 10.0 mi NW 3.5 mph - N/A   Overcast
12:15 PM 51.8 °F - 28.4 °F 41% 30.11 in 10.0 mi North 8.1 mph - N/A   Scattered Clouds
12:35 PM 53.6 °F - 24.8 °F 33% 30.10 in 10.0 mi NNW 8.1 mph - N/A   Clear
12:55 PM 51.8 °F - 24.8 °F 35% 30.09 in 10.0 mi NNW 8.1 mph - N/A   Scattered Clouds
1:15 PM 51.8 °F - 24.8 °F 35% 30.09 in 10.0 mi NNW 9.2 mph - N/A   Clear
1:35 PM 53.6 °F - 24.8 °F 33% 30.08 in 10.0 mi NW 5.8 mph - N/A   Scattered Clouds
1:55 PM 53.6 °F - 24.8 °F 33% 30.07 in 10.0 mi NNW 8.1 mph - N/A   Scattered Clouds
2:15 PM 53.6 °F - 24.8 °F 33% 30.07 in 10.0 mi NNW 8.1 mph - N/A   Clear
2:35 PM 53.6 °F - 26.6 °F 35% 30.07 in 10.0 mi NNW 5.8 mph - N/A   Clear
2:55 PM 55.4 °F - 26.6 °F 33% 30.06 in 10.0 mi NW 8.1 mph - N/A   Scattered Clouds
3:15 PM 55.4 °F - 26.6 °F 33% 30.06 in 10.0 mi NNW 9.2 mph - N/A   Mostly Cloudy
3:35 PM 53.6 °F - 24.8 °F 33% 30.06 in 10.0 mi North 3.5 mph - N/A   Mostly Cloudy
4:15 PM 53.6 °F - 23.0 °F 30% 30.07 in 10.0 mi NW 8.1 mph - N/A   Clear
4:35 PM 51.8 °F - 23.0 °F 33% 30.07 in 10.0 mi NNW 8.1 mph - N/A   Clear
4:55 PM 51.8 °F - 23.0 °F 33% 30.07 in 10.0 mi NNW 6.9 mph - N/A   Clear
5:15 PM 50.0 °F - 26.6 °F 40% 30.08 in 10.0 mi NNW 9.2 mph - N/A   Clear
5:35 PM 50.0 °F - 26.6 °F 40% 30.08 in 10.0 mi NW 5.8 mph - N/A   Clear
5:55 PM 50.0 °F - 26.6 °F 40% 30.08 in 10.0 mi NW 8.1 mph - N/A   Clear
6:15 PM 50.0 °F - 28.4 °F 43% 30.09 in 10.0 mi NW 8.1 mph - N/A   Scattered Clouds
6:35 PM 50.0 °F - 28.4 °F 43% 30.09 in 10.0 mi NW 6.9 mph - N/A   Scattered Clouds
6:55 PM 48.2 °F - 28.4 °F 46% 30.10 in 10.0 mi NW 4.6 mph - N/A   Clear
7:15 PM 48.2 °F - 28.4 °F 46% 30.10 in 10.0 mi NW 6.9 mph - N/A   Clear
7:55 PM 46.4 °F 45.2 °F 30.2 °F 53% 30.10 in 10.0 mi NW 3.5 mph - N/A   Clear
8:35 PM 46.4 °F - 30.2 °F 53% 30.11 in 10.0 mi Calm Calm - N/A   Clear
8:55 PM 44.6 °F - 30.2 °F 57% 30.11 in 10.0 mi Calm Calm - N/A   Clear
9:15 PM 44.6 °F - 30.2 °F 57% 30.11 in 10.0 mi Calm Calm - N/A   Clear
9:35 PM 44.6 °F - 30.2 °F 57% 30.11 in 10.0 mi Calm Calm - N/A   Clear
9:55 PM 44.6 °F - 30.2 °F 57% 30.11 in 10.0 mi Calm Calm - N/A   Clear
10:15 PM 44.6 °F - 30.2 °F 57% 30.12 in 10.0 mi Calm Calm - N/A   Clear
10:35 PM 44.6 °F 43.1 °F 30.2 °F 57% 30.11 in 10.0 mi NW 3.5 mph - N/A   Clear
10:55 PM 42.8 °F 39.3 °F 30.2 °F 61% 30.11 in 10.0 mi NW 5.8 mph - N/A   Clear
11:15 PM 44.6 °F - 30.2 °F 57% 30.11 in 10.0 mi Calm Calm - N/A   Clear
11:35 PM 44.6 °F - 30.2 °F 57% 30.11 in 10.0 mi Calm Calm - N/A   Clear
11:55 PM 44.6 °F - 28.4 °F 53% 30.11 in 10.0 mi Calm Calm - N/A   Clear